STARLINK-37286

Last updated on Sun Apr 12 2026 00:02:09 GMT+0000 (Coordinated Universal Time)

1 68512U 26068E 26101.50002315 .00038768 00000+0 19930-3 0 9996 2 68512 53.1599 344.8635 0000837 86.2954 52.2245 15.80848101 3088
UTC large
Height (km)
Speed (km/s)
/
Latitude / Longitude
Inclination (degrees)
Orbital Period (minutes)
Azimuth
Elevation
Range (km)
Doppler Factor

Next 0 passes for location: London (51.5072 / 0.1276)

Sorry there are no passes over London.
STARLINK-37286